TIANWANG 1C (TW-1C)
1 40926U 15051B   18149.85739270  .00006670  00000-0  12581-3 0  9996
2 40926  97.1849 192.2878 0009358 356.6585  88.0607 15.48769151150474
TIANWANG 1B (TW-1B)
1 40927U 15051C   18149.47975009  .00006647  00000-0  13078-3 0  9993
2 40927  97.1939 191.7504 0009882  10.1890  97.1270 15.47541935150326
TIANWANG 1A (TW-1A)
1 40928U 15051D   18149.61164420 +.00002251 +00000-0 +60967-4 0  9994
2 40928 097.1867 183.9675 0013007 036.8172 082.6690 15.38626397149926
LAPAN A2
1 40931U 15052B   18148.67308000  .00000630  00000-0 -12633-5 0  9996
2 40931   5.9978 289.2689 0013076  90.4038 269.7542 14.76575959144116
LQSAT
1 40958U 15057A   18149.41731996 -.00000017 +00000-0 +51406-5 0  9997
2 40958 097.9405 222.9706 0019188 040.5212 319.7418 14.73031801142087
CHUBUSAT 2
1 41338U 16012B   18149.21518882  .00000283  00000-0  15360-4 0  9999
2 41338  31.0038  74.1831 0013982 245.3442 114.5737 14.99977335124986
CHUBUSAT 3
1 41339U 16012C   18149.83014854  .00000237  00000-0  11706-4 0  9997
2 41339  31.0120  68.9008 0013766 258.3964 101.5132 15.00165346125068
OUFTI-1
1 41458U 16025C   18149.75035519  .00000525  00000-0  31966-4 0  9995
2 41458  98.1373 211.6167 0169293 208.9843 150.1902 15.04593911114667
E-STAR-2
1 41459U 16025D   18149.42137737 +.00000520 +00000-0 +31793-4 0  9998
2 41459 098.1391 211.1173 0170302 210.7528 148.3618 15.04332459114609
AAUSAT 4
1 41460U 16025E   18149.81645300  .00000946  00000-0  53289-4 0  9999
2 41460  98.1321 212.0045 0161788 205.4762 153.8411 15.05736076114720
NUSAT 1
1 41557U 16033B   18149.83572821  .00001102  00000-0  43091-4 0  9999
2 41557  97.4377 234.0886 0013352 223.3335 136.6855 15.27953031111358
BEESAT 4
1 41619U 16040W   18149.46436748  .00001159  00000-0  53665-4 0  9992
2 41619  97.4162 212.8691 0010071 300.3657  59.6583 15.22073014 95245
PRATHAM
1 41783U 16059A   18149.80691915  .00000059  00000-0  20846-4 0  9994
2 41783  98.1187 211.6628 0034339 151.4166 208.8928 14.62923204 89277
ALSAT 1N
1 41789U 16059G   18149.71139734  .00000053  00000-0  19093-4 0  9992
2 41789  98.1194 212.7536 0029278 143.4235 216.8971 14.64154481 89312
NAYIF 1
1 42017U 17008BX  18149.52001568 +.00001351 +00000-0 +58044-4 0  9995
2 42017 097.4492 214.6876 0008195 087.7834 272.4342 15.24387830071222
LILACSAT-1
1 42725U 98067ME  18149.83070558  .00020930  00000-0  18558-3 0  9993
2 42725  51.6361  91.6664 0004683 141.5975 218.5356 15.68533123 57648
MAX VALIER SAT
1 42778U 17036P   18149.82929547  .00000912  00000-0  43791-4 0  9994
2 42778  97.4047 209.8461 0014133 129.6503 230.5982 15.21270006 51716
